RH
7 7 7 8 7 6 5 4 4 4 5 5 5 5 6 6 6 8 10 8 6 5 4 4 4 5 4 4 5 5 5 6 6 6 6 6 6 6 7 9 10 10 10 8 4 2 2 4 7
8 8 8 7 7 6 6 7 6 5 5 6 6 6 6 7 8 10 10 9 6 5 5 5 5 5 5 5 5 5 6 6 6 5 6 6 7 8 8 7 11 12 11 11 10 8 4 3 2
9 9 9 10 8 6 6 7 6 6 7 7 7 7 7 8 9 10 11 9 7 6 6 6 6 6 6 6 7 6 6 6 6 6 5 6 7 8 8 7 9 10 13 11 12 11 10 7 4
12 12 11 11 11 8 7 8 8 8 8 8 8 8 8 8 9 12 12 11 7 7 6 6 6 6 6 6 7 6 7 6 7 6 6 7 7 8 8 8 9 8 9 12 12 11 12 11 9
13 13 13 14 13 11 9 8 7 7 9 10 9 10 9 10 10 12 13 14 12 8 7 7 7 7 7 6 7 7 7 7 7 6 6 6 6 7 7 7 8 8 8 9 8 12 10 11 12
13 13 14 14 13 13 13 11 8 8 9 9 10 11 10 11 10 11 13 14 15 15 14 8 7 7 7 6 7 7 8 8 8 8 7 6 6 6 6 7 8 7 8 9 8 10 12 12 12
11 12 14 13 14 11 14 14 11 9 10 10 9 10 12 12 12 11 13 14 14 15 15 14 9 8 7 7 8 7 8 8 9 9 9 8 7 6 6 7 7 7 7 8 9 8 8 11 14
10 11 14 13 14 12 13 14 13 12 11 11 10 11 14 12 13 13 12 13 13 15 15 15 15 9 8 9 9 8 8 9 10 10 10 9 8 6 6 6 7 8 8 8 8 9 8 7 10
11 11 13 13 14 15 15 14 13 12 11 11 11 11 13 13 13 15 15 14 14 14 15 14 16 15 10 9 10 9 9 9 9 10 10 10 9 7 6 7 6 7 8 10 8 8 8 8 7
13 14 14 14 14 15 16 16 17 16 13 12 13 12 13 14 14 15 16 17 16 15 15 15 16 17 16 12 10 10 11 10 10 11 11 11 11 9 7 7 8 8 8 9 10 10 10 9 7
15 16 16 17 17 17 16 17 16 18 16 17 15 15 14 14 15 16 18 20 19 18 17 17 17 17 18 15 13 11 12 12 12 12 13 12 12 11 8 8 8 8 8 9 10 10 10 10 9
11 12 14 16 16 15 14 14 13 12 13 14 18 18 18 17 17 18 21 22 22 20 19 20 19 18 19 20 15 14 13 12 13 14 13 13 14 14 10 9 9 9 9 9 10 9 8 9 10
8 7 7 6 6 6 6 6 7 8 6 6 8 14 20 22 22 23 25 26 26 23 22 22 22 21 21 22 17 17 16 15 12 12 14 14 15 15 13 11 9 9 10 9 10 11 9 8 9
15 15 15 15 15 15 14 15 15 16 15 14 13 10 9 14 22 27 31 30 27 27 27 26 24 23 23 24 20 20 21 22 19 16 15 16 17 16 14 12 12 12 11 10 10 12 12 10 9
14 13 10 11 12 12 12 15 11 11 13 15 15 16 19 17 14 16 21 27 29 29 30 28 26 25 25 27 25 21 22 22 25 25 23 20 18 17 17 15 14 13 13 11 11 13 13 13 12
18 18 16 14 13 12 10 12 10 10 13 10 14 19 19 24 25 21 20 20 21 24 26 27 26 27 29 30 28 23 23 25 28 29 25 22 19 18 17 17 17 16 15 14 12 12 12 13 14
15 12 11 12 11 10 9 11 9 8 14 19 17 24 29 26 26 31 31 31 32 30 30 30 32 33 33 33 30 27 26 28 30 30 27 23 21 19 19 18 18 19 17 15 13 11 12 13 14
11 12 13 10 10 12 10 11 11 13 15 18 20 23 33 34 35 29 28 31 32 35 36 36 36 36 37 36 33 30 29 31 34 33 30 30 25 21 21 21 22 21 20 17 14 13 13 12 14
10 9 8 9 8 10 9 11 11 13 15 21 26 28 35 36 34 36 34 29 31 34 37 38 37 37 36 35 34 31 31 34 38 36 36 33 28 26 26 26 25 24 23 20 18 15 16 15 15
10 9 8 8 8 7 7 8 10 11 15 22 28 34 33 33 34 37 40 38 34 32 31 34 34 34 33 33 34 34 38 42 43 42 41 34 32 30 27 27 27 28 28 26 21 21 19 17 17
12 10 10 10 9 10 9 8 9 10 11 20 23 30 33 30 34 39 42 45 44 38 36 35 34 37 38 38 39 43 48 50 50 49 43 36 37 33 31 33 33 30 30 28 28 25 22 23 20
15 15 13 12 11 10 10 10 11 12 20 24 22 23 32 40 34 38 47 48 45 45 46 45 43 43 46 49 52 54 56 58 51 44 38 36 39 38 39 39 39 40 39 39 38 36 32 30 27
17 15 13 13 12 12 12 11 12 19 29 34 36 32 30 42 43 41 49 47 50 53 52 50 51 54 56 58 61 64 57 53 51 47 43 39 42 45 43 43 43 43 46 45 41 38 39 36 34
19 20 17 17 18 23 22 18 21 27 32 35 38 41 41 36 40 48 56 59 56 54 54 60 66 72 74 67 58 57 54 52 49 45 46 54 56 52 48 46 46 46 50 52 52 52 50 47 44
28 28 29 24 29 29 28 26 28 28 30 33 36 47 49 47 42 45 56 67 68 63 58 58 60 63 66 68 68 67 58 56 70 74 70 70 68 62 58 56 57 55 56 55 56 55 54 52 48
35 38 40 37 34 32 30 24 23 24 27 32 34 39 45 50 53 57 61 65 74 79 82 84 87 86 84 82 74 59 70 84 84 82 80 74 70 66 64 65 68 69 69 69 67 64 58 54 50
37 39 38 37 36 37 39 38 31 31 35 34 35 37 44 50 54 54 54 58 70 82 90 92 90 88 88 87 85 84 83 82 82 85 84 81 79 79 80 82 82 81 76 71 68 65 62 57 54
45 40 42 41 40 40 42 45 52 56 52 54 52 52 52 53 56 56 60 63 66 77 80 80 84 90 95 97 97 97 97 98 96 93 95 96 98 97 94 90 86 82 78 76 74 72 70 67 63
45 46 46 45 46 45 42 49 64 66 69 62 61 61 63 66 69 69 66 62 69 71 72 72 71 72 75 84 95 100 100 100 100 100 100 100 100 100 100 99 98 97 96 94 89 86 86 82 78
47 52 59 60 58 56 54 41 58 61 59 57 56 58 60 62 64 60 61 63 69 70 66 64 73 83 96 100 100 100 100 100 100 100 100 100 100 100 99 98 97 95 90 82 76 73 68 63 58
Wind_Speed
4 4 4 3 2 4 3 5 6 4 6 7 7 8 9 9 8 8 8 8 8 8 7 7 8 10 9 9 10 11 11 14 12 14 15 16 17 20 22 22 22 20 18 17 15 14 13 11 12
6 6 5 5 6 7 5 4 5 8 7 8 8 9 10 10 10 9 9 9 9 10 7 7 7 9 11 11 11 11 12 13 12 12 13 15 17 20 21 22 22 19 17 17 15 13 12 12 13
9 9 8 8 9 9 6 3 5 6 8 9 10 10 11 12 12 10 10 10 10 11 10 8 9 10 13 13 11 13 12 13 12 11 12 14 16 18 20 21 23 22 18 12 14 13 13 13 12
12 13 13 11 14 11 10 9 9 8 10 11 12 12 12 14 14 13 12 11 12 12 13 12 12 14 16 16 13 14 14 13 12 11 11 14 13 16 17 18 21 24 22 18 14 11 10 12 13
15 16 15 14 18 15 14 13 14 12 12 14 14 14 13 15 16 15 14 13 13 12 13 14 14 14 15 17 15 13 13 11 12 13 11 12 12 12 14 17 19 22 24 22 18 13 10 9 11
16 16 15 16 20 19 16 18 17 16 17 18 16 17 17 16 18 18 17 16 15 15 13 14 15 16 13 16 16 14 13 12 13 15 14 13 13 13 14 15 17 19 21 23 21 16 13 10 10
21 17 16 17 20 20 17 21 22 19 19 21 21 20 19 21 21 19 20 20 19 19 16 16 17 18 17 17 19 16 17 16 13 15 16 16 14 15 13 14 12 16 19 20 21 20 18 16 11
20 19 18 19 20 20 19 23 25 24 22 24 24 20 23 25 23 22 23 24 24 23 20 19 18 19 20 18 19 18 19 19 18 18 17 17 15 15 15 14 14 12 15 17 20 20 18 17 15
19 20 21 23 23 21 24 23 25 26 26 26 26 25 26 26 26 26 26 26 25 25 24 22 21 21 22 23 20 20 22 22 23 21 21 19 16 15 16 16 17 16 15 16 19 19 17 16 16
20 20 21 22 23 22 23 25 26 27 27 27 28 28 29 29 29 29 29 28 27 26 26 25 24 23 24 24 25 24 22 22 23 25 24 23 19 17 16 18 17 19 19 16 16 21 20 19 18
21 20 20 22 22 22 21 24 24 27 27 29 29 30 31 31 31 31 30 30 29 28 27 26 26 26 26 26 26 27 26 25 26 26 26 25 23 19 17 18 18 20 20 17 18 16 21 22 20
21 21 21 22 23 24 25 26 27 28 31 30 32 32 33 32 32 32 31 31 31 30 29 28 28 28 28 28 28 29 29 29 29 30 28 27 27 22 20 20 20 20 22 20 19 16 16 19 22
17 18 18 19 20 22 22 24 24 27 33 33 34 34 35 35 33 33 32 32 32 31 31 31 31 31 30 30 29 27 28 29 32 32 30 29 29 25 22 22 23 24 22 23 21 19 17 16 17
7 9 11 12 14 16 17 19 20 26 27 27 28 30 33 36 37 35 34 34 34 33 33 33 33 33 33 32 31 29 28 29 31 32 32 32 30 27 24 24 24 22 22 23 22 19 22 19 19
7 9 10 11 14 16 16 18 22 24 26 27 29 30 29 29 31 34 36 36 35 36 35 36 36 35 34 33 33 32 32 31 32 33 33 34 32 30 27 25 25 27 24 21 22 21 19 23 24
9 8 6 9 12 16 17 19 24 25 27 29 28 30 31 30 28 29 31 32 33 34 36 36 36 36 35 35 35 34 34 34 34 34 35 34 34 33 30 28 27 29 28 25 23 23 22 22 25
8 11 13 14 16 19 22 23 27 26 26 28 29 28 29 29 29 30 30 30 31 33 33 34 35 35 36 36 37 36 36 36 36 36 36 36 36 36 34 31 31 31 31 30 27 26 25 24 26
14 15 17 19 19 21 25 27 27 29 27 27 27 28 27 28 28 30 32 31 31 32 33 35 36 37 38 39 39 39 39 39 39 39 38 37 38 38 37 36 35 35 35 34 32 32 29 28 28
18 19 20 23 25 23 26 29 30 31 30 28 25 23 26 29 29 28 31 33 34 33 35 36 37 38 40 41 41 41 42 42 41 41 41 40 40 41 39 39 38 39 38 37 35 36 36 34 32
22 23 24 25 28 28 28 27 30 32 31 27 26 22 23 25 26 26 29 33 35 37 37 38 40 41 42 44 44 44 44 44 44 44 44 42 42 43 42 42 42 42 40 40 41 38 38 40 39
24 26 28 30 28 29 29 27 28 30 32 29 27 26 22 21 23 24 24 29 32 36 38 41 42 43 44 45 45 45 45 45 47 48 47 44 44 46 45 46 46 46 45 45 45 44 43 43 44
25 29 31 33 33 33 32 30 27 27 29 32 30 28 27 24 23 22 22 26 30 32 36 39 42 43 44 44 45 46 47 48 49 49 49 47 46 50 49 49 50 49 49 48 49 48 46 45 46
31 34 36 36 33 31 32 30 29 30 31 29 28 31 30 26 25 23 24 26 28 31 35 38 40 42 44 46 46 47 48 49 51 53 53 52 51 54 56 56 55 55 54 53 53 53 52 51 50
35 36 37 34 33 35 33 33 33 33 32 32 30 29 30 33 34 33 32 32 33 34 35 37 39 42 44 46 48 49 50 52 54 56 56 56 57 60 60 61 62 62 61 59 58 58 56 55 55
35 36 38 39 41 42 39 38 37 37 36 37 36 32 30 32 35 36 35 34 35 38 39 39 42 45 49 52 53 55 55 53 58 61 60 60 62 65 65 65 65 66 66 65 65 64 62 60 58
36 36 39 44 45 47 45 42 41 39 41 41 41 38 35 35 35 33 35 38 40 41 42 44 46 48 50 52 53 54 58 62 61 62 64 66 68 69 69 68 68 69 70 71 70 68 66 65 63
40 41 42 45 48 51 49 48 46 46 47 43 43 43 44 43 41 40 41 41 41 42 43 46 48 50 53 55 58 62 65 65 65 66 66 68 69 70 71 73 75 75 75 76 75 72 70 68 66
43 44 46 48 53 54 53 51 54 53 50 49 49 49 49 45 42 42 44 48 48 47 50 52 53 54 57 60 63 65 68 68 67 68 70 72 74 77 78 79 80 80 79 78 77 75 73 72 71
48 48 50 52 53 53 54 57 54 50 52 53 55 55 54 52 50 48 45 46 45 47 50 54 58 60 62 63 64 65 67 69 73 76 77 79 80 81 81 80 79 79 79 79 78 78 78 77 75
53 53 56 58 57 58 56 58 54 51 54 56 56 58 59 52 51 50 52 52 52 54 58 62 63 64 64 66 68 71 73 76 78 78 79 79 77 76 75 75 75 74 75 74 72 71 72 71 70
Wind_Direction
345 342 345 349 327 264 245 211 230 237 251 275 286 289 287 278 275 286 307 311 282 286 305 317 321 336 333 340 345 339 340 347 348 358 356 4 3 3 1 1 2 13 17 10 3 1 352 332 305
321 322 323 318 309 299 338 280 226 242 269 272 280 282 282 280 275 284 302 311 282 277 294 304 302 323 322 336 331 333 324 336 338 350 345 357 1 2 -0 3 0 8 8 13 13 6 353 352 354
297 301 300 302 292 289 307 303 274 276 275 282 283 285 286 281 276 285 296 303 287 275 276 285 289 300 307 316 325 331 319 332 337 337 340 352 353 3 5 5 357 3 5 6 11 12 4 350 336
284 283 284 289 287 288 281 275 270 271 273 275 281 287 285 282 277 281 291 301 297 280 274 274 281 289 291 297 303 323 316 318 331 333 331 337 347 352 359 359 358 2 356 358 357 356 8 359 347
278 277 278 277 273 277 278 275 275 276 276 275 279 282 283 282 278 274 281 290 295 290 283 279 278 285 288 288 288 312 308 315 327 325 322 322 329 345 346 356 354 360 357 357 355 341 339 347 352
278 279 278 273 273 275 278 274 269 270 273 274 276 278 279 281 276 271 272 278 286 292 295 289 280 274 285 287 283 292 293 310 316 320 316 312 318 329 343 351 352 0 357 354 355 352 337 335 337
274 276 277 276 275 274 271 273 269 268 269 274 272 273 279 272 271 274 270 271 274 282 289 292 288 274 273 276 275 281 284 293 309 311 315 314 309 311 319 337 4 8 7 1 356 356 348 341 329
273 271 276 276 276 287 275 269 275 273 271 272 273 276 272 274 276 274 273 270 269 273 278 282 287 278 269 270 270 275 279 283 293 306 315 312 311 303 309 311 323 342 343 354 354 352 346 342 336
280 276 274 277 276 274 276 274 273 273 272 271 273 272 273 273 273 273 272 270 270 271 272 274 279 280 271 270 270 273 272 276 282 289 305 307 304 298 302 307 314 316 323 325 349 351 351 343 339
282 282 278 277 278 278 276 277 276 275 274 273 271 272 272 271 271 271 271 270 269 270 271 271 271 276 276 274 270 270 271 270 273 284 299 302 297 294 289 300 307 314 316 319 333 333 345 341 333
280 278 279 278 279 279 277 276 277 278 277 274 273 271 269 270 270 270 269 269 267 266 268 269 269 271 273 273 270 268 269 270 272 281 289 293 292 293 288 292 308 308 315 315 315 327 330 337 334
278 279 278 278 280 282 282 281 281 281 277 276 274 273 271 268 268 268 269 267 267 266 266 268 268 268 270 271 271 270 267 269 272 278 283 289 289 287 286 288 298 308 317 308 307 321 329 332 333
277 279 281 282 284 286 288 289 289 282 277 276 273 272 272 271 268 267 267 268 267 267 267 267 267 268 268 269 271 272 270 269 271 274 277 282 285 284 285 289 293 296 302 312 313 312 318 323 326
309 307 303 306 307 304 306 306 299 285 286 284 282 274 269 268 268 268 266 265 267 268 267 266 266 266 266 267 268 270 272 272 271 272 274 277 279 276 278 284 290 294 295 302 307 302 310 316 308
335 326 320 324 318 323 323 313 304 296 292 290 286 282 278 274 271 267 265 265 266 267 267 265 265 264 265 266 268 269 271 272 273 274 272 274 274 273 276 281 287 290 288 290 297 299 304 307 308
342 331 314 317 326 328 330 324 311 306 300 297 290 288 280 275 273 270 265 264 264 263 264 264 264 265 266 266 267 269 271 272 272 272 271 271 270 269 270 275 281 286 287 287 290 294 298 296 296
313 314 326 336 331 331 329 329 321 320 312 305 296 284 283 276 270 268 267 265 264 263 264 264 265 266 266 266 267 269 271 272 273 272 270 269 268 268 270 273 277 280 283 283 283 285 290 291 294
321 321 323 323 322 329 326 327 327 327 323 310 302 287 281 281 276 268 266 266 266 266 265 264 264 265 265 266 268 270 272 274 273 272 270 269 267 267 269 271 274 278 281 281 279 279 280 281 285
320 319 319 321 318 319 319 325 332 332 328 316 306 293 285 283 281 273 267 263 263 262 262 264 265 265 266 268 270 271 273 274 273 272 270 269 267 267 267 271 274 275 277 278 278 277 279 280 280
320 321 319 319 318 319 319 318 320 326 330 319 307 299 287 285 280 273 266 264 261 261 263 263 263 264 265 267 268 270 271 272 274 274 274 272 270 271 270 273 275 275 277 278 277 278 279 279 279
320 318 318 316 315 316 314 314 315 317 321 324 313 301 294 291 285 281 272 268 266 265 264 264 266 267 267 268 270 271 273 274 273 273 272 269 271 271 271 272 272 274 276 276 275 275 274 277 279
314 313 314 315 317 318 318 318 312 318 322 323 316 306 296 293 288 284 277 270 267 266 266 266 266 268 270 270 271 271 273 274 274 274 273 273 275 275 274 273 274 275 277 277 278 277 277 277 278
313 312 313 314 317 320 319 314 316 321 323 323 322 312 300 289 283 281 282 279 275 272 269 269 270 270 270 271 272 273 274 274 274 275 277 279 279 276 276 274 274 275 276 277 278 278 278 278 277
311 312 313 315 317 318 319 315 317 320 321 328 324 312 303 297 290 284 280 282 279 274 272 271 271 272 272 273 275 275 275 274 274 275 277 279 278 276 275 275 275 275 275 276 278 279 279 278 277
313 315 316 314 316 318 320 318 315 317 317 319 317 314 304 300 297 293 289 284 280 278 278 277 276 276 277 276 275 275 274 275 277 278 277 276 276 275 275 275 274 275 275 276 278 279 278 277 275
312 314 316 315 316 313 315 314 314 313 313 313 311 312 314 309 301 294 293 291 285 282 281 279 278 278 279 279 278 274 274 278 278 277 277 277 276 277 277 275 275 277 278 279 279 277 276 274 272
308 310 311 311 311 311 313 313 311 310 312 309 306 308 310 308 302 298 295 291 287 284 283 282 280 279 279 278 277 275 277 278 278 278 275 274 274 275 275 276 276 277 278 277 278 277 276 275 272
308 307 310 311 309 310 310 311 309 311 310 309 306 305 303 303 302 299 293 288 287 286 285 285 283 281 279 278 277 276 277 278 276 274 272 273 275 276 276 277 277 277 276 276 276 275 274 271 270
305 306 306 306 306 305 308 309 310 310 307 304 303 303 304 304 302 296 289 287 286 283 282 281 282 281 280 280 279 277 275 274 274 275 276 277 278 277 277 277 277 277 277 277 276 275 275 274 273
302 304 306 305 304 303 306 302 308 303 300 301 303 303 302 302 299 297 294 291 285 281 280 280 280 280 278 277 278 277 277 277 278 278 279 279 279 279 279 279 280 281 281 282 282 282 281 280 279